Location: Kędzierzyn-Koźle
(50.3448°N, 18.2086°E)
Time: 22:41:17
(UTC+01:00)

ISS - Visible Passes

Search period start: 23 January 2019 00:00
Search period end: 02 February 2019 00:00
Orbit: 404 x 410 km, 51.6° (Epoch: 24 January)

Date Brightness Start Highest point End Pass type
(mag) Time Alt. Az. Time Alt. Az. Time Alt. Az.
23 Jan -1.8 18:39:36 10° SSW 18:41:05 20° S 18:41:05 20° S visible
24 Jan -1.9 17:48:59 10° S 17:51:16 18° SE 17:52:04 16° ESE visible
24 Jan -0.9 19:24:06 10° WSW 19:24:47 15° WSW 19:24:47 15° WSW visible
25 Jan -3.1 18:32:52 10° SW 18:35:41 45° S 18:35:41 45° S visible
26 Jan -2.7 17:41:48 10° SSW 17:44:47 32° SSE 17:46:30 19° E visible
26 Jan -1.4 19:17:50 10° W 19:19:14 23° W 19:19:14 23° W visible
27 Jan -4.0 18:26:27 10° WSW 18:29:45 78° SSE 18:30:00 71° ESE visible
28 Jan -3.5 17:35:08 10° SW 17:38:22 56° SSE 17:40:43 17° E visible
28 Jan -1.8 19:11:37 10° W 19:13:26 29° W 19:13:26 29° W visible
29 Jan -3.8 18:20:09 10° W 18:23:27 77° NNW 18:24:07 53° ENE visible
29 Jan -0.1 19:56:49 10° WNW 19:56:50 10° WNW 19:56:50 10° WNW visible
30 Jan -3.8 17:28:42 10° WSW 17:32:00 88° SSE 17:34:47 14° ENE visible
30 Jan -2.3 19:05:21 10° W 19:07:30 36° WNW 19:07:30 36° WNW visible
31 Jan -3.7 18:13:52 10° W 18:17:10 68° N 18:18:09 40° ENE visible
31 Jan -0.4 19:50:28 10° WNW 19:50:52 13° WNW 19:50:52 13° WNW visible
01 Feb -3.7 17:22:21 10° W 17:25:40 72° N 17:28:49 11° ENE visible
01 Feb -2.9 18:59:01 10° WNW 19:01:32 49° WNW 19:01:32 49° WNW visible
